Atka, AK

11:22 PM HST on December 17, 2017 (GMT -1000)
Atka

Weather History for PAAK - November, 2011

Change the Weather History Date:

Friday, November 25, 2011

  Actual Average (PADK) Record (PADK)
Temperature  
Mean Temperature 32 °F -  
Max Temperature 37 °F 40 °F 55 °F (1970)
Min Temperature 28 °F 31 °F 18 °F (1972)
Degree Days  
Heating Degree Days 34    
Moisture  
Dew Point 22 °F    
Average Humidity 68    
Maximum Humidity 75    
Minimum Humidity 56    
Precipitation  
Precipitation 0.00 in - - ()
Sea Level Pressure  
Sea Level Pressure 30.23 in    
Wind  
Wind Speed 5 mph (WSW)    
Max Wind Speed 14 mph    
Max Gust Speed 18 mph    
Visibility 10 miles    
Events      
Averages and records for this station are not official NWS values.
T = Trace of Precipitation, MM = Missing Value Source: NWS Daily Summary

Daily Weather History Graph

Daily Weather History Graph

Search for Another Location

Airport or City:

Trip Planner

Search our weather history database for the weather conditions in past years. The results will help you decide how hot, cold, wet, or windy it might be!

Date:

Astronomy

Nov. 25, 2011 Rise Set
Actual Time 9:14 AM HST 5:32 PM HST
Civil Twilight 8:35 AM HST 6:11 PM HST
Nautical Twilight 7:52 AM HST 6:54 PM HST
Astronomical Twilight 7:12 AM HST 7:34 PM HST
Moon 10:06 AM HST (11/25) 6:05 PM HST (11/25)
Length of Visible Light 9h 36m
Length of Day
8h 18m
New Moon, 1% of the Moon is Illuminated
Nov 25
New Moon
Dec 1
First Quarter
Dec 10
Full
Dec 17
Last Quarter
Dec 24
New

Hourly Weather History & Observations

Time (HST) Temp. Windchill Dew Point Humidity Pressure Visibility Wind Dir Wind Speed Gust Speed Precip Events Conditions
12:36 AM 30.2 °F 20.8 °F 21.2 °F 69% 30.25 in 6.0 mi NW 11.5 mph 18.4 mph N/A   Overcast
12:56 AM 30.2 °F 24.3 °F 21.2 °F 69% 30.24 in 10.0 mi WNW 5.8 mph - N/A   Mostly Cloudy
1:16 AM 28.4 °F 24.6 °F 21.2 °F 74% 30.25 in 10.0 mi WNW 3.5 mph - N/A   Partly Cloudy
1:36 AM 28.4 °F - 19.4 °F 69% 30.24 in 10.0 mi Calm Calm - N/A   Scattered Clouds
1:56 AM 30.2 °F 26.7 °F 19.4 °F 64% 30.24 in 10.0 mi WNW 3.5 mph - N/A   Mostly Cloudy
2:16 AM 28.4 °F 23.3 °F 19.4 °F 69% 30.25 in 10.0 mi WNW 4.6 mph - N/A   Partly Cloudy
2:36 AM 28.4 °F 20.4 °F 19.4 °F 69% 30.26 in 10.0 mi WNW 8.1 mph - N/A   Clear
2:56 AM 30.2 °F 21.9 °F 21.2 °F 69% 30.26 in 10.0 mi West 9.2 mph - N/A   Partly Cloudy
3:16 AM 30.2 °F 21.3 °F 21.2 °F 69% 30.27 in 10.0 mi NW 10.4 mph - N/A   Mostly Cloudy
3:36 AM 32.0 °F 24.2 °F 21.2 °F 64% 30.27 in 10.0 mi NW 9.2 mph - N/A   Overcast
3:56 AM 30.2 °F 26.7 °F 21.2 °F 69% 30.28 in 10.0 mi NW 3.5 mph - N/A   Scattered Clouds
4:16 AM 28.4 °F 24.6 °F 21.2 °F 74% 30.28 in 10.0 mi NW 3.5 mph - N/A   Partly Cloudy
4:36 AM 28.4 °F - 19.4 °F 69% 30.28 in 10.0 mi Calm Calm - N/A   Scattered Clouds
4:56 AM 30.2 °F - 19.4 °F 64% 30.28 in 10.0 mi Calm Calm - N/A   Mostly Cloudy
5:16 AM 30.2 °F - 23.0 °F 75% 30.28 in 10.0 mi Calm Calm - N/A   Overcast
5:36 AM 30.2 °F - 23.0 °F 75% 30.28 in 10.0 mi Calm Calm - N/A   Mostly Cloudy
5:56 AM 28.4 °F - 21.2 °F 74% 30.28 in 10.0 mi Calm Calm - N/A   Mostly Cloudy
6:16 AM 28.4 °F - 21.2 °F 74% 30.28 in 10.0 mi Calm Calm - N/A   Mostly Cloudy
6:36 AM 28.4 °F 24.6 °F 21.2 °F 74% 30.28 in 10.0 mi WSW 3.5 mph - N/A   Partly Cloudy
6:56 AM 28.4 °F 23.3 °F 19.4 °F 69% 30.28 in 10.0 mi West 4.6 mph - N/A   Scattered Clouds
7:16 AM 28.4 °F 24.6 °F 19.4 °F 69% 30.28 in 10.0 mi WNW 3.5 mph - N/A   Mostly Cloudy
7:36 AM 28.4 °F - 21.2 °F 74% 30.28 in 10.0 mi Calm Calm - N/A   Overcast
7:56 AM 30.2 °F - 19.4 °F 64% 30.29 in 10.0 mi Calm Calm - N/A   Overcast
8:16 AM 30.2 °F - 21.2 °F 69% 30.29 in 10.0 mi Calm Calm - N/A   Overcast
8:36 AM 30.2 °F - 23.0 °F 75% 30.28 in 10.0 mi Calm Calm - N/A   Overcast
8:56 AM 30.2 °F - 23.0 °F 75% 30.28 in 10.0 mi Calm Calm - N/A   Overcast
9:16 AM 30.2 °F - 23.0 °F 75% 30.27 in 10.0 mi Calm Calm - N/A   Overcast
9:36 AM 30.2 °F - 23.0 °F 75% 30.28 in 10.0 mi Calm Calm - N/A   Overcast
9:56 AM 30.2 °F - 23.0 °F 75% 30.28 in 10.0 mi Calm Calm - N/A   Overcast
10:16 AM 30.2 °F - 23.0 °F 75% 30.28 in 10.0 mi Calm Calm - N/A   Overcast
10:36 AM 30.2 °F - 23.0 °F 75% 30.27 in 10.0 mi Calm Calm - N/A   Overcast
10:56 AM 32.0 °F - 23.0 °F 69% 30.26 in 10.0 mi Calm Calm - N/A   Overcast
11:16 AM 32.0 °F - 24.8 °F 75% 30.25 in 10.0 mi Calm Calm - N/A   Overcast
11:36 AM 33.8 °F - 24.8 °F 70% 30.25 in 10.0 mi Calm Calm - N/A   Overcast
11:56 AM 33.8 °F - 24.8 °F 70% 30.25 in 10.0 mi Calm Calm - N/A   Overcast
12:16 PM 33.8 °F - 24.8 °F 70% 30.24 in 10.0 mi Calm Calm - N/A   Overcast
12:36 PM 33.8 °F - 24.8 °F 70% 30.23 in 10.0 mi Calm Calm - N/A   Overcast
12:56 PM 33.8 °F - 24.8 °F 70% 30.22 in 10.0 mi Calm Calm - N/A   Overcast
1:16 PM 33.8 °F - 24.8 °F 70% 30.22 in 10.0 mi Calm Calm - N/A   Overcast
1:36 PM 35.6 °F - 24.8 °F 65% 30.20 in 10.0 mi Calm Calm - N/A   Overcast
1:56 PM 35.6 °F 29.2 °F 21.2 °F 56% 30.19 in 10.0 mi South 8.1 mph - N/A   Overcast
2:16 PM 35.6 °F 27.5 °F 21.2 °F 56% 30.17 in 10.0 mi SSE 11.5 mph - N/A   Overcast
2:36 PM 35.6 °F 29.2 °F 21.2 °F 56% 30.16 in 10.0 mi SSE 8.1 mph - N/A   Overcast
2:56 PM 35.6 °F 28.0 °F 21.2 °F 56% 30.15 in 10.0 mi South 10.4 mph - N/A   Overcast
3:16 PM 35.6 °F 29.9 °F 21.2 °F 56% 30.15 in 10.0 mi SSE 6.9 mph - N/A   Overcast
3:36 PM 35.6 °F 27.1 °F 23.0 °F 60% 30.14 in 10.0 mi SSE 12.7 mph 16.1 mph N/A   Overcast
3:56 PM 35.6 °F 28.6 °F 23.0 °F 60% 30.13 in 10.0 mi SSE 9.2 mph - N/A   Overcast
4:16 PM 35.6 °F 28.0 °F 23.0 °F 60% 30.10 in 10.0 mi SSE 10.4 mph - N/A   Overcast
4:36 PM 35.6 °F 28.0 °F 24.8 °F 65% 30.08 in 10.0 mi SE 10.4 mph 18.4 mph N/A   Overcast
4:56 PM 35.6 °F 26.6 °F 24.8 °F 65% 30.07 in 10.0 mi SSE 13.8 mph 17.3 mph N/A   Overcast
5:16 PM 37.4 °F 31.4 °F 24.8 °F 60% 30.06 in 10.0 mi SSE 8.1 mph - N/A   Overcast
5:36 PM 37.4 °F 28.5 °F 26.6 °F 65% 30.05 in 10.0 mi SSE 15.0 mph 19.6 mph N/A   Overcast
5:56 PM 37.4 °F 27.8 °F 26.6 °F 65% 30.03 in 10.0 mi SE 17.3 mph 23.0 mph N/A   Overcast
6:16 PM 37.4 °F 29.8 °F 26.6 °F 65% 30.01 in 10.0 mi SE 11.5 mph 24.2 mph N/A   Overcast
6:36 PM 37.4 °F 28.2 °F 26.6 °F 65% 29.99 in 10.0 mi SE 16.1 mph 23.0 mph N/A   Overcast
6:56 PM 37.4 °F 28.5 °F 26.6 °F 65% 29.97 in 10.0 mi SSE 15.0 mph 24.2 mph N/A   Overcast
7:16 PM 37.4 °F 28.2 °F 28.4 °F 70% 29.94 in 10.0 mi SSE 16.1 mph 27.6 mph N/A   Overcast